Weather History for KCMY - January, 2013

Change the Weather History Date:

Wednesday, January 2, 2013

  Actual Average (KLSE) Record (KLSE)
Temperature  
Mean Temperature 14 °F 18 °F  
Max Temperature 23 °F 26 °F 51 °F (1998)
Min Temperature 5 °F 10 °F -26 °F (1879)
Degree Days  
Heating Degree Days 51 47  
Month to date heating degree days 94  
Since 1 July heating degree days 2938  
Cooling Degree Days 0 0  
Month to date cooling degree days 0  
Year to date cooling degree days 0  
Moisture  
Dew Point 10 °F    
Average Humidity 74    
Maximum Humidity 92    
Minimum Humidity 59    
Precipitation  
Precipitation 0.00 in 0.04 in 0.59 in (1886)
Month to date precipitation 0.07  
Year to date precipitation 0.07  
Snow  
Snow 0.00 in 0.30 in 7.30 in (1999)
Month to date snowfall 0.6  
Since 1 July snowfall 16.2  
Snow Depth -    
Sea Level Pressure  
Sea Level Pressure 30.05 in    
Wind  
Wind Speed 2 mph (SSW)    
Max Wind Speed 8 mph    
Max Gust Speed -    
Visibility 10 miles    
Events      
T = Trace of Precipitation, MM = Missing Value Source: NWS Daily Summary

Daily Weather History Graph

Daily Weather History Graph

Search for Another Location

Airport or City:

Trip Planner

Search our weather history database for the weather conditions in past years. The results will help you decide how hot, cold, wet, or windy it might be!

Date:

Astronomy

Jan. 02, 2013 Rise Set
Actual Time 7:37 AM CST 4:36 PM CST
Civil Twilight 7:04 AM CST 5:09 PM CST
Nautical Twilight 6:28 AM CST 5:46 PM CST
Astronomical Twilight 5:53 AM CST 6:21 PM CST
Moon 10:22 PM CST (1/2) 10:08 AM CST (1/2)
Length of Visible Light 10h 04m
Length of Day
8h 59m
Waning Gibbous, 75% of the Moon is Illuminated
Jan 2
Waning Gibbous
Jan 4
Last Quarter
Jan 11
New
Jan 18
First Quarter
Jan 26
Full

Hourly Weather History & Observations

Time (CST) Temp. Windchill Dew Point Humidity Pressure Visibility Wind Dir Wind Speed Gust Speed Precip Events Conditions
12:15 AM 15.8 °F - 10.4 °F 79% 30.11 in 10.0 mi Calm Calm - N/A   Mostly Cloudy
12:35 AM 15.8 °F - 10.4 °F 79% 30.10 in 10.0 mi Calm Calm - N/A   Overcast
12:55 AM 15.8 °F - 10.4 °F 79% 30.08 in 10.0 mi Calm Calm - N/A   Overcast
1:15 AM 15.8 °F - 10.4 °F 79% 30.08 in 10.0 mi Calm Calm - N/A   Overcast
1:35 AM 15.8 °F - 10.4 °F 79% 30.09 in 10.0 mi Calm Calm - N/A   Overcast
1:55 AM 15.8 °F - 10.4 °F 79% 30.10 in 10.0 mi Calm Calm - N/A   Overcast
2:15 AM 17.6 °F 12.3 °F 10.4 °F 73% 30.10 in 10.0 mi South 3.5 mph - N/A   Overcast
2:35 AM 17.6 °F - 12.2 °F 79% 30.10 in 10.0 mi Calm Calm - N/A   Overcast
2:55 AM 17.6 °F - 12.2 °F 79% 30.10 in 10.0 mi Calm Calm - N/A   Overcast
3:15 AM 15.8 °F - 10.4 °F 79% 30.10 in 10.0 mi Calm Calm - N/A   Mostly Cloudy
3:35 AM 14.0 °F - 10.4 °F 86% 30.09 in 10.0 mi Calm Calm - N/A   Scattered Clouds
3:55 AM 12.2 °F - 8.6 °F 85% 30.08 in 10.0 mi Calm Calm - N/A   Clear
4:15 AM 8.6 °F - 5.0 °F 85% 30.08 in 10.0 mi Calm Calm - N/A   Scattered Clouds
4:35 AM 8.6 °F - 5.0 °F 85% 30.07 in 10.0 mi Calm Calm - N/A   Mostly Cloudy
4:55 AM 5.0 °F - 3.2 °F 92% 30.07 in 10.0 mi Calm Calm - N/A   Mostly Cloudy
5:15 AM 8.6 °F 2.0 °F 5.0 °F 85% 30.07 in 10.0 mi South 3.5 mph - N/A   Mostly Cloudy
5:35 AM 10.4 °F 2.2 °F 8.6 °F 92% 30.06 in 10.0 mi South 4.6 mph - N/A   Scattered Clouds
5:55 AM 10.4 °F 2.2 °F 6.8 °F 85% 30.05 in 10.0 mi South 4.6 mph - N/A   Clear
6:15 AM 12.2 °F 6.1 °F 8.6 °F 85% 30.06 in 10.0 mi South 3.5 mph - N/A   Clear
6:35 AM 10.4 °F - 6.8 °F 85% 30.06 in 10.0 mi Calm Calm - N/A   Clear
6:55 AM 8.6 °F - 5.0 °F 85% 30.05 in 10.0 mi Calm Calm - N/A   Clear
7:15 AM 5.0 °F - 1.4 °F 85% 30.05 in 10.0 mi Calm Calm - N/A   Clear
7:35 AM 8.6 °F -1.3 °F 3.2 °F 79% 30.05 in 10.0 mi South 5.8 mph - N/A   Clear
7:55 AM 12.2 °F 6.1 °F 5.0 °F 73% 30.05 in 10.0 mi SSW 3.5 mph - N/A   Clear
8:15 AM 12.2 °F - 5.0 °F 73% 30.05 in 10.0 mi Calm Calm - N/A   Clear
8:35 AM 12.2 °F 6.1 °F 3.2 °F 67% 30.05 in 10.0 mi SSW 3.5 mph - N/A   Clear
8:55 AM 14.0 °F 8.2 °F 5.0 °F 67% 30.05 in 10.0 mi SSW 3.5 mph - N/A   Clear
9:15 AM 14.0 °F 8.2 °F 5.0 °F 67% 30.06 in 10.0 mi SSW 3.5 mph - N/A   Clear
9:35 AM 14.0 °F 5.1 °F 5.0 °F 67% 30.05 in 10.0 mi SSW 5.8 mph - N/A   Clear
9:55 AM 15.8 °F 7.2 °F 5.0 °F 62% 30.05 in 10.0 mi South 5.8 mph - N/A   Clear
10:15 AM 15.8 °F 7.2 °F 5.0 °F 62% 30.05 in 10.0 mi South 5.8 mph - N/A   Scattered Clouds
10:35 AM 17.6 °F 9.3 °F 6.8 °F 63% 30.05 in 10.0 mi SSW 5.8 mph - N/A   Mostly Cloudy
10:55 AM 17.6 °F 8.2 °F 8.6 °F 68% 30.03 in 10.0 mi South 6.9 mph - N/A   Scattered Clouds
11:15 AM 19.4 °F 12.8 °F 8.6 °F 63% 30.03 in 10.0 mi South 4.6 mph - N/A   Scattered Clouds
11:35 AM 19.4 °F 12.8 °F 8.6 °F 63% 30.03 in 10.0 mi SW 4.6 mph - N/A   Mostly Cloudy
11:55 AM 19.4 °F 11.5 °F 10.4 °F 68% 30.02 in 10.0 mi South 5.8 mph - N/A   Mostly Cloudy
12:15 PM 21.2 °F - 10.4 °F 63% 30.02 in 10.0 mi Calm Calm - N/A   Mostly Cloudy
12:35 PM 23.0 °F - 10.4 °F 59% 30.00 in 10.0 mi Calm Calm - N/A   Scattered Clouds
12:55 PM 23.0 °F 14.7 °F 10.4 °F 59% 30.00 in 10.0 mi South 6.9 mph - N/A   Clear
1:15 PM 23.0 °F 17.0 °F 12.2 °F 63% 29.99 in 10.0 mi South 4.6 mph - N/A   Scattered Clouds
1:35 PM 23.0 °F 15.8 °F 12.2 °F 63% 29.99 in 10.0 mi South 5.8 mph - N/A   Scattered Clouds
1:55 PM 23.0 °F 14.7 °F 12.2 °F 63% 29.99 in 10.0 mi South 6.9 mph - N/A   Scattered Clouds
2:15 PM 23.0 °F 17.0 °F 12.2 °F 63% 29.98 in 10.0 mi SSE 4.6 mph - N/A   Mostly Cloudy
2:35 PM 23.0 °F 18.4 °F 12.2 °F 63% 29.99 in 10.0 mi WSW 3.5 mph - N/A   Mostly Cloudy
3:15 PM 23.0 °F 17.0 °F 12.2 °F 63% 30.00 in 10.0 mi South 4.6 mph - N/A   Mostly Cloudy
3:35 PM 23.0 °F 15.8 °F 12.2 °F 63% 30.01 in 10.0 mi SSW 5.8 mph - N/A   Mostly Cloudy
3:55 PM 23.0 °F - 12.2 °F 63% 30.01 in 10.0 mi Calm Calm - N/A   Mostly Cloudy
4:15 PM 23.0 °F 13.9 °F 14.0 °F 68% 30.01 in 10.0 mi South 8.1 mph - N/A   Mostly Cloudy
4:35 PM 23.0 °F 18.4 °F 12.2 °F 63% 30.02 in 10.0 mi SSW 3.5 mph - N/A   Overcast
4:55 PM 23.0 °F 17.0 °F 12.2 °F 63% 30.02 in 10.0 mi SSW 4.6 mph - N/A   Mostly Cloudy
5:15 PM 21.2 °F - 12.2 °F 68% 30.02 in 10.0 mi Calm Calm - N/A   Mostly Cloudy
5:35 PM 21.2 °F 16.4 °F 12.2 °F 68% 30.03 in 10.0 mi South 3.5 mph - N/A   Mostly Cloudy
5:55 PM 21.2 °F - 12.2 °F 68% 30.03 in 10.0 mi Calm Calm - N/A   Mostly Cloudy
6:15 PM 19.4 °F - 12.2 °F 74% 30.04 in 10.0 mi Calm Calm - N/A   Mostly Cloudy
6:35 PM 21.2 °F - 12.2 °F 68% 30.04 in 10.0 mi Calm Calm - N/A   Mostly Cloudy
6:55 PM 19.4 °F - 12.2 °F 74% 30.04 in 10.0 mi Calm Calm - N/A   Overcast
7:15 PM 21.2 °F - 12.2 °F 68% 30.03 in 10.0 mi Calm Calm - N/A   Overcast
7:35 PM 19.4 °F 14.3 °F 12.2 °F 74% 30.03 in 10.0 mi SW 3.5 mph - N/A   Scattered Clouds
7:55 PM 19.4 °F 12.8 °F 12.2 °F 74% 30.04 in 10.0 mi SW 4.6 mph - N/A   Scattered Clouds
8:15 PM 19.4 °F 14.3 °F 14.0 °F 80% 30.04 in 10.0 mi SW 3.5 mph - N/A   Scattered Clouds
8:35 PM 19.4 °F 12.8 °F 14.0 °F 80% 30.04 in 10.0 mi WSW 4.6 mph - N/A   Scattered Clouds
8:55 PM 19.4 °F 14.3 °F 14.0 °F 80% 30.03 in 10.0 mi SW 3.5 mph - N/A   Mostly Cloudy
9:15 PM 19.4 °F - 14.0 °F 80% 30.03 in 10.0 mi Calm Calm - N/A   Overcast
9:35 PM 19.4 °F 14.3 °F 14.0 °F 80% 30.04 in 10.0 mi West 3.5 mph - N/A   Overcast
9:55 PM 19.4 °F 14.3 °F 14.0 °F 80% 30.04 in 10.0 mi West 3.5 mph - N/A   Overcast
10:15 PM 19.4 °F - 14.0 °F 80% 30.04 in 10.0 mi Calm Calm - N/A   Overcast
10:35 PM 19.4 °F - 14.0 °F 80% 30.05 in 10.0 mi Calm Calm - N/A   Scattered Clouds
10:55 PM 19.4 °F - 14.0 °F 80% 30.05 in 10.0 mi Calm Calm - N/A   Mostly Cloudy
11:15 PM 19.4 °F 14.3 °F 14.0 °F 80% 30.05 in 10.0 mi West 3.5 mph - N/A   Overcast
11:35 PM 19.4 °F 11.5 °F 14.0 °F 80% 30.06 in 10.0 mi West 5.8 mph - N/A   Mostly Cloudy
11:55 PM 19.4 °F 10.4 °F 14.0 °F 80% 30.06 in 10.0 mi West 6.9 mph - N/A   Scattered Clouds